Location: Temple Hill
(37.3073°N, 88.6303°W)
Time: 16:47:24
(UTC+00:00)

Cosmos 389 Rocket - Pass Details

Date: 23 November 2020
Orbit: 442 x 473 km, 81.1° (Epoch: 20 January)

Event Time Altitude Azimuth Distance (km) Brightness Sun altitude
Rises 23:29:29 0° 179° (S) 2,443 6.4 -10.1°
Reaches altitude 10° 23:31:34 10° 174° (S) 1,571 5.3 -10.5°
Maximum altitude 23:34:55 55° 96° (E) 542 2.5 -11.1°
Drops below altitude 10° 23:38:17 10° 18° (NNE) 1,572 4.8 -11.8°
Enters shadow 23:39:25 - 15° (NNE) 2,043 5.4 -12.0°
